Year,Month,Day,Hour,Minute,Value (Times are PST for windspeed in km/hr)
2007,05,07,00,00,4.10
2007,05,07,00,01,3.80
2007,05,07,00,02,0.50
2007,05,07,00,03,3.20
2007,05,07,00,04,2.90
2007,05,07,00,05,5.50
2007,05,07,00,06,4.30
2007,05,07,00,07,6.10
2007,05,07,00,08,3.60
2007,05,07,00,09,4.60
2007,05,07,00,10,6.20
2007,05,07,00,11,5.00
2007,05,07,00,12,4.00
2007,05,07,00,13,2.70
2007,05,07,00,14,0.30
2007,05,07,00,15,3.30
2007,05,07,00,16,1.60
2007,05,07,00,17,1.10
2007,05,07,00,18,1.90
2007,05,07,00,19,1.20
2007,05,07,00,20,1.50
2007,05,07,00,21,0.10
2007,05,07,00,22,1.10
2007,05,07,00,23,0.90
2007,05,07,00,24,0.10
2007,05,07,00,25,0.10
2007,05,07,00,26,2.50
2007,05,07,00,27,3.40
2007,05,07,00,28,0.90
2007,05,07,00,29,2.20
2007,05,07,00,30,1.20
2007,05,07,00,31,0.30
2007,05,07,00,32,0.20
2007,05,07,00,33,3.10
2007,05,07,00,34,4.50
2007,05,07,00,35,2.20
2007,05,07,00,36,2.00
2007,05,07,00,37,4.10
2007,05,07,00,38,3.80
2007,05,07,00,39,3.10
2007,05,07,00,40,0.80
2007,05,07,00,41,0.80
2007,05,07,00,42,0.60
2007,05,07,00,43,1.60
2007,05,07,00,44,0.10
2007,05,07,00,45,2.00
2007,05,07,00,46,3.40
2007,05,07,00,47,5.40
2007,05,07,00,48,2.60
2007,05,07,00,49,3.20
2007,05,07,00,50,2.80
2007,05,07,00,51,2.60
2007,05,07,00,52,0.30
2007,05,07,00,53,1.50
2007,05,07,00,54,0.60
2007,05,07,00,55,1.70
2007,05,07,00,56,2.30
2007,05,07,00,57,3.20
2007,05,07,00,58,4.10
2007,05,07,00,59,3.10
2007,05,07,01,00,4.70
2007,05,07,01,01,1.80
2007,05,07,01,02,1.50
2007,05,07,01,03,0.30
2007,05,07,01,04,0.10
2007,05,07,01,05,0.70
2007,05,07,01,06,2.50
2007,05,07,01,07,0.70
2007,05,07,01,08,2.70
2007,05,07,01,09,2.00
2007,05,07,01,10,1.80
2007,05,07,01,11,1.10
2007,05,07,01,12,1.60
2007,05,07,01,13,4.10
2007,05,07,01,14,4.20
2007,05,07,01,15,3.50
2007,05,07,01,16,3.20
2007,05,07,01,17,1.30
2007,05,07,01,18,0.60
2007,05,07,01,19,1.90
2007,05,07,01,20,4.30
2007,05,07,01,21,1.90
2007,05,07,01,22,2.10
2007,05,07,01,23,0.40
2007,05,07,01,24,0.40
2007,05,07,01,25,0.00
2007,05,07,01,26,0.70
2007,05,07,01,27,3.20
2007,05,07,01,28,2.10
2007,05,07,01,29,1.70
2007,05,07,01,30,4.70
2007,05,07,01,31,2.20
2007,05,07,01,32,1.90
2007,05,07,01,33,3.90
2007,05,07,01,34,0.70
2007,05,07,01,35,0.10
2007,05,07,01,36,0.00
2007,05,07,01,37,2.30
2007,05,07,01,38,0.30
2007,05,07,01,39,2.20
2007,05,07,01,40,3.80
2007,05,07,01,41,4.10
2007,05,07,01,42,0.00
2007,05,07,01,43,0.90
2007,05,07,01,44,2.10
2007,05,07,01,45,4.50
2007,05,07,01,46,1.10
2007,05,07,01,47,1.90
2007,05,07,01,48,0.40
2007,05,07,01,49,0.80
2007,05,07,01,50,1.90
2007,05,07,01,51,2.50
2007,05,07,01,52,1.00
2007,05,07,01,53,0.00
2007,05,07,01,54,2.50
2007,05,07,01,55,1.00
2007,05,07,01,56,3.40
2007,05,07,01,57,0.70
2007,05,07,01,58,0.30
2007,05,07,01,59,1.40
2007,05,07,02,00,0.00
2007,05,07,02,01,0.10
2007,05,07,02,02,0.00
2007,05,07,02,03,1.10
2007,05,07,02,04,0.70
2007,05,07,02,05,0.40
2007,05,07,02,06,0.50
2007,05,07,02,07,1.30
2007,05,07,02,08,0.00
2007,05,07,02,09,0.00
2007,05,07,02,10,0.00
2007,05,07,02,11,0.60
2007,05,07,02,12,1.60
2007,05,07,02,13,1.00
2007,05,07,02,14,1.80
2007,05,07,02,15,0.80
2007,05,07,02,16,3.00
2007,05,07,02,17,0.90
2007,05,07,02,18,0.00
2007,05,07,02,19,0.00
2007,05,07,02,20,0.70
2007,05,07,02,21,0.00
2007,05,07,02,22,0.00
2007,05,07,02,23,0.00
2007,05,07,02,24,0.10
2007,05,07,02,25,1.70
2007,05,07,02,26,1.40
2007,05,07,02,27,1.00
2007,05,07,02,28,0.50
2007,05,07,02,29,1.80
2007,05,07,02,30,0.00
2007,05,07,02,31,0.00
2007,05,07,02,32,0.90
2007,05,07,02,33,0.00
2007,05,07,02,34,0.40
2007,05,07,02,35,0.80
2007,05,07,02,36,0.10
2007,05,07,02,37,0.30
2007,05,07,02,38,0.20
2007,05,07,02,39,1.30
2007,05,07,02,40,0.20
2007,05,07,02,41,0.00
2007,05,07,02,42,0.00
2007,05,07,02,43,0.00
2007,05,07,02,44,0.00
2007,05,07,02,45,2.10
2007,05,07,02,46,0.20
2007,05,07,02,47,0.10
2007,05,07,02,48,2.70
2007,05,07,02,49,3.60
2007,05,07,02,50,3.80
2007,05,07,02,51,3.50
2007,05,07,02,52,2.70
2007,05,07,02,53,1.90
2007,05,07,02,54,2.30
2007,05,07,02,55,2.90
2007,05,07,02,56,3.80
2007,05,07,02,57,0.10
2007,05,07,02,58,0.00
2007,05,07,02,59,0.90
2007,05,07,03,00,0.10
2007,05,07,03,01,0.10
2007,05,07,03,02,0.00
2007,05,07,03,03,2.00
2007,05,07,03,04,0.00
2007,05,07,03,05,0.00
2007,05,07,03,06,0.10
2007,05,07,03,07,1.20
2007,05,07,03,08,1.20
2007,05,07,03,09,0.90
2007,05,07,03,10,0.30
2007,05,07,03,11,1.20
2007,05,07,03,12,0.20
2007,05,07,03,13,1.30
2007,05,07,03,14,2.00
2007,05,07,03,15,0.10
2007,05,07,03,16,0.00
2007,05,07,03,17,0.00
2007,05,07,03,18,0.00
2007,05,07,03,19,0.00
2007,05,07,03,20,0.70
2007,05,07,03,21,2.80
2007,05,07,03,22,0.00
2007,05,07,03,23,0.00
2007,05,07,03,24,0.40
2007,05,07,03,25,0.00
2007,05,07,03,26,0.30
2007,05,07,03,27,0.60
2007,05,07,03,28,0.10
2007,05,07,03,29,1.00
2007,05,07,03,30,0.10
2007,05,07,03,31,0.50
2007,05,07,03,32,4.80
2007,05,07,03,33,1.80
2007,05,07,03,34,2.00
2007,05,07,03,35,4.70
2007,05,07,03,36,4.20
2007,05,07,03,37,2.00
2007,05,07,03,38,0.20
2007,05,07,03,39,1.60
2007,05,07,03,40,0.80
2007,05,07,03,41,0.00
2007,05,07,03,42,0.60
2007,05,07,03,43,0.90
2007,05,07,03,44,0.90
2007,05,07,03,45,0.00
2007,05,07,03,46,0.10
2007,05,07,03,47,0.20
2007,05,07,03,48,0.10
2007,05,07,03,49,2.00
2007,05,07,03,50,0.90
2007,05,07,03,51,0.00
2007,05,07,03,52,1.30
2007,05,07,03,53,0.00
2007,05,07,03,54,0.10
2007,05,07,03,55,0.00
2007,05,07,03,56,0.80
2007,05,07,03,57,4.30
2007,05,07,03,58,0.80
2007,05,07,03,59,1.00
2007,05,07,04,00,4.00
2007,05,07,04,01,0.90
2007,05,07,04,02,0.40
2007,05,07,04,03,3.10
2007,05,07,04,04,0.60
2007,05,07,04,05,3.40
2007,05,07,04,06,3.90
2007,05,07,04,07,1.00
2007,05,07,04,08,1.60
2007,05,07,04,09,2.70
2007,05,07,04,10,0.30
2007,05,07,04,11,2.50
2007,05,07,04,12,1.10
2007,05,07,04,13,0.00
2007,05,07,04,14,0.50
2007,05,07,04,15,0.00
2007,05,07,04,16,0.40
2007,05,07,04,17,0.90
2007,05,07,04,18,0.10
2007,05,07,04,19,0.90
2007,05,07,04,20,1.30
2007,05,07,04,21,2.40
2007,05,07,04,22,2.50
2007,05,07,04,23,0.60
2007,05,07,04,24,0.90
2007,05,07,04,25,2.40
2007,05,07,04,26,1.50
2007,05,07,04,27,2.70
2007,05,07,04,28,2.30
2007,05,07,04,29,1.40
2007,05,07,04,30,1.20
2007,05,07,04,31,1.10
2007,05,07,04,32,1.20
2007,05,07,04,33,2.60
2007,05,07,04,34,2.90
2007,05,07,04,35,0.60
2007,05,07,04,36,2.70
2007,05,07,04,37,0.30
2007,05,07,04,38,1.00
2007,05,07,04,39,0.80
2007,05,07,04,40,1.30
2007,05,07,04,41,0.20
2007,05,07,04,42,1.10
2007,05,07,04,43,0.10
2007,05,07,04,44,0.10
2007,05,07,04,45,1.70
2007,05,07,04,46,0.10
2007,05,07,04,47,0.30
2007,05,07,04,48,1.30
2007,05,07,04,49,0.30
2007,05,07,04,50,0.10
2007,05,07,04,51,0.00
2007,05,07,04,52,0.10
2007,05,07,04,53,0.00
2007,05,07,04,54,1.70
2007,05,07,04,55,0.10
2007,05,07,04,56,0.00
2007,05,07,04,57,0.00
2007,05,07,04,58,0.00
2007,05,07,04,59,0.10
2007,05,07,05,00,0.00
2007,05,07,05,01,1.80
2007,05,07,05,02,0.40
2007,05,07,05,03,0.30
2007,05,07,05,04,0.80
2007,05,07,05,05,0.30
2007,05,07,05,06,1.20
2007,05,07,05,07,1.30
2007,05,07,05,08,2.30
2007,05,07,05,09,0.60
2007,05,07,05,10,1.90
2007,05,07,05,11,0.10
2007,05,07,05,12,0.30
2007,05,07,05,13,0.90
2007,05,07,05,14,0.30
2007,05,07,05,15,4.80
2007,05,07,05,16,2.50
2007,05,07,05,17,0.40
2007,05,07,05,18,1.80
2007,05,07,05,19,0.00
2007,05,07,05,20,4.00
2007,05,07,05,21,1.80
2007,05,07,05,22,2.40
2007,05,07,05,23,1.00
2007,05,07,05,24,0.20
2007,05,07,05,25,1.90
2007,05,07,05,26,1.00
2007,05,07,05,27,0.30
2007,05,07,05,28,2.60
2007,05,07,05,29,4.70
2007,05,07,05,30,3.30
2007,05,07,05,31,4.10
2007,05,07,05,32,2.10
2007,05,07,05,33,2.60
2007,05,07,05,34,1.70
2007,05,07,05,35,0.30
2007,05,07,05,36,5.00
2007,05,07,05,37,1.40
2007,05,07,05,38,2.80
2007,05,07,05,39,1.20
2007,05,07,05,40,2.40
2007,05,07,05,41,0.90
2007,05,07,05,42,0.40
2007,05,07,05,43,1.40
2007,05,07,05,44,2.50
2007,05,07,05,45,3.60
2007,05,07,05,46,2.20
2007,05,07,05,47,2.50
2007,05,07,05,48,2.40
2007,05,07,05,49,1.40
2007,05,07,05,50,2.80
2007,05,07,05,51,3.80
2007,05,07,05,52,2.80
2007,05,07,05,53,2.50
2007,05,07,05,54,1.50
2007,05,07,05,55,1.30
2007,05,07,05,56,1.40
2007,05,07,05,57,2.90
2007,05,07,05,58,1.80
2007,05,07,05,59,3.80
2007,05,07,06,00,2.00
2007,05,07,06,01,2.50
2007,05,07,06,02,3.10
2007,05,07,06,03,0.90
2007,05,07,06,04,0.00
2007,05,07,06,05,0.10
2007,05,07,06,06,0.30
2007,05,07,06,07,1.90
2007,05,07,06,08,3.60
2007,05,07,06,09,3.30
2007,05,07,06,10,0.10
2007,05,07,06,11,0.40
2007,05,07,06,12,0.40
2007,05,07,06,13,1.10
2007,05,07,06,14,1.00
2007,05,07,06,15,0.00
2007,05,07,06,16,0.00
2007,05,07,06,17,3.10
2007,05,07,06,18,2.20
2007,05,07,06,19,2.20
2007,05,07,06,20,0.00
2007,05,07,06,21,0.10
2007,05,07,06,22,0.10
2007,05,07,06,23,1.30
2007,05,07,06,24,1.90
2007,05,07,06,25,0.10
2007,05,07,06,26,0.00
2007,05,07,06,27,0.10
2007,05,07,06,28,0.20
2007,05,07,06,29,3.30
2007,05,07,06,30,3.30
2007,05,07,06,31,1.00
2007,05,07,06,32,0.80
2007,05,07,06,33,0.50
2007,05,07,06,34,1.80
2007,05,07,06,35,0.90
2007,05,07,06,36,1.30
2007,05,07,06,37,2.60
2007,05,07,06,38,0.10
2007,05,07,06,39,1.90
2007,05,07,06,40,1.50
2007,05,07,06,41,0.20
2007,05,07,06,42,0.40
2007,05,07,06,43,2.70
2007,05,07,06,44,2.60
2007,05,07,06,45,3.40
2007,05,07,06,46,1.70
2007,05,07,06,47,0.70
2007,05,07,06,48,2.50
2007,05,07,06,49,2.50
2007,05,07,06,50,1.50
2007,05,07,06,51,0.10
2007,05,07,06,52,2.10
2007,05,07,06,53,1.50
2007,05,07,06,54,2.40
2007,05,07,06,55,2.50
2007,05,07,06,56,6.10
2007,05,07,06,57,3.60
2007,05,07,06,58,4.90
2007,05,07,06,59,0.70
2007,05,07,07,00,4.70
2007,05,07,07,01,3.20
2007,05,07,07,02,2.10
2007,05,07,07,03,1.10
2007,05,07,07,04,1.90
2007,05,07,07,05,3.90
2007,05,07,07,06,3.50
2007,05,07,07,07,3.20
2007,05,07,07,08,0.90
2007,05,07,07,09,0.50
2007,05,07,07,10,3.50
2007,05,07,07,11,1.90
2007,05,07,07,12,0.80
2007,05,07,07,13,2.80
2007,05,07,07,14,1.50
2007,05,07,07,15,0.10
2007,05,07,07,16,1.80
2007,05,07,07,17,1.70
2007,05,07,07,18,2.10
2007,05,07,07,19,0.40
2007,05,07,07,20,2.40
2007,05,07,07,21,0.10
2007,05,07,07,22,0.80
2007,05,07,07,23,0.10
2007,05,07,07,24,0.00
2007,05,07,07,25,0.10
2007,05,07,07,26,2.50
2007,05,07,07,27,2.40
2007,05,07,07,28,0.60
2007,05,07,07,29,6.20
2007,05,07,07,30,3.10
2007,05,07,07,31,3.20
2007,05,07,07,32,3.20
2007,05,07,07,33,5.60
2007,05,07,07,34,1.60
2007,05,07,07,35,0.10
2007,05,07,07,36,0.90
2007,05,07,07,37,0.40
2007,05,07,07,38,1.40
2007,05,07,07,39,0.30
2007,05,07,07,40,0.60
2007,05,07,07,41,2.60
2007,05,07,07,42,1.20
2007,05,07,07,43,4.50
2007,05,07,07,44,2.30
2007,05,07,07,45,0.80
2007,05,07,07,46,1.10
2007,05,07,07,47,1.60
2007,05,07,07,48,0.00
2007,05,07,07,49,2.00
2007,05,07,07,50,1.50
2007,05,07,07,51,1.90
2007,05,07,07,52,1.80
2007,05,07,07,53,2.20
2007,05,07,07,54,6.10
2007,05,07,07,55,6.90
2007,05,07,07,56,1.30
2007,05,07,07,57,3.70
2007,05,07,07,58,3.80
2007,05,07,07,59,6.30
2007,05,07,08,00,5.50
2007,05,07,08,01,2.90
2007,05,07,08,02,0.90
2007,05,07,08,03,3.60
2007,05,07,08,04,0.90
2007,05,07,08,05,3.60
2007,05,07,08,06,4.20
2007,05,07,08,07,5.70
2007,05,07,08,08,2.60
2007,05,07,08,09,2.20
2007,05,07,08,10,2.20
2007,05,07,08,11,4.60
2007,05,07,08,12,2.40
2007,05,07,08,13,2.50
2007,05,07,08,14,1.00
2007,05,07,08,15,1.20
2007,05,07,08,16,3.20
2007,05,07,08,17,4.70
2007,05,07,08,18,3.40
2007,05,07,08,19,1.20
2007,05,07,08,20,1.80
2007,05,07,08,21,3.60
2007,05,07,08,22,7.20
2007,05,07,08,23,1.70
2007,05,07,08,24,1.50
2007,05,07,08,25,4.00
2007,05,07,08,26,2.50
2007,05,07,08,27,5.40
2007,05,07,08,28,5.00
2007,05,07,08,29,3.10
2007,05,07,08,30,4.20
2007,05,07,08,31,4.10
2007,05,07,08,32,4.20
2007,05,07,08,33,3.00
2007,05,07,08,34,0.40
2007,05,07,08,35,2.50
2007,05,07,08,36,0.00
2007,05,07,08,37,3.40
2007,05,07,08,38,6.40
2007,05,07,08,39,4.40
2007,05,07,08,40,3.70
2007,05,07,08,41,6.80
2007,05,07,08,42,4.60
2007,05,07,08,43,2.90
2007,05,07,08,44,2.80
2007,05,07,08,45,2.30
2007,05,07,08,46,3.10
2007,05,07,08,47,1.70
2007,05,07,08,48,5.50
2007,05,07,08,49,3.80
2007,05,07,08,50,6.10
2007,05,07,08,51,4.10
2007,05,07,08,52,1.80
2007,05,07,08,53,0.70
2007,05,07,08,54,0.70
2007,05,07,08,55,6.70
2007,05,07,08,56,2.60
2007,05,07,08,57,0.70
2007,05,07,08,58,3.30
2007,05,07,08,59,1.10
2007,05,07,09,00,6.40
2007,05,07,09,01,3.60
2007,05,07,09,02,1.60
2007,05,07,09,03,2.10
2007,05,07,09,04,1.80
2007,05,07,09,05,9.40
2007,05,07,09,06,4.10
2007,05,07,09,07,11.90
2007,05,07,09,08,7.50
2007,05,07,09,09,1.70
2007,05,07,09,10,2.80
2007,05,07,09,11,5.80
2007,05,07,09,12,5.40
2007,05,07,09,13,3.90
2007,05,07,09,14,4.60
2007,05,07,09,15,0.60
2007,05,07,09,16,3.20
2007,05,07,09,17,8.60
2007,05,07,09,18,4.70
2007,05,07,09,19,6.60
2007,05,07,09,20,5.40
2007,05,07,09,21,7.20
2007,05,07,09,22,4.00
2007,05,07,09,23,3.20
2007,05,07,09,24,4.60
2007,05,07,09,25,8.60
2007,05,07,09,26,2.70
2007,05,07,09,27,1.20
2007,05,07,09,28,6.90
2007,05,07,09,29,4.70
2007,05,07,09,30,6.40
2007,05,07,09,31,4.60
2007,05,07,09,32,2.50
2007,05,07,09,33,9.40
2007,05,07,09,34,7.20
2007,05,07,09,35,1.90
2007,05,07,09,36,2.80
2007,05,07,09,37,5.00
2007,05,07,09,38,3.20
2007,05,07,09,39,5.30
2007,05,07,09,40,7.10
2007,05,07,09,41,8.30
2007,05,07,09,42,5.70
2007,05,07,09,43,9.10
2007,05,07,09,44,4.30
2007,05,07,09,45,1.90
2007,05,07,09,46,5.30
2007,05,07,09,47,5.60
2007,05,07,09,48,4.40
2007,05,07,09,49,4.00
2007,05,07,09,50,4.30
2007,05,07,09,51,5.40
2007,05,07,09,52,5.30
2007,05,07,09,53,6.10
2007,05,07,09,54,6.20
2007,05,07,09,55,3.40
2007,05,07,09,56,3.40
2007,05,07,09,57,4.40
2007,05,07,09,58,8.00
2007,05,07,09,59,8.50
2007,05,07,10,00,5.30
2007,05,07,10,01,5.80
2007,05,07,10,02,9.50
2007,05,07,10,03,9.30
2007,05,07,10,04,3.50
2007,05,07,10,05,2.50
2007,05,07,10,06,4.30
2007,05,07,10,07,8.10
2007,05,07,10,08,8.30
2007,05,07,10,09,3.80
2007,05,07,10,10,0.70
2007,05,07,10,11,3.50
2007,05,07,10,12,5.30
2007,05,07,10,13,5.30
2007,05,07,10,14,7.00
2007,05,07,10,15,7.30
2007,05,07,10,16,5.50
2007,05,07,10,17,6.90
2007,05,07,10,18,8.60
2007,05,07,10,19,5.20
2007,05,07,10,20,2.40
2007,05,07,10,21,4.60
2007,05,07,10,22,2.90
2007,05,07,10,23,1.70
2007,05,07,10,24,3.10
2007,05,07,10,25,7.50
2007,05,07,10,26,5.10
2007,05,07,10,27,4.90
2007,05,07,10,28,1.90
2007,05,07,10,29,4.80
2007,05,07,10,30,6.60
2007,05,07,10,31,4.20
2007,05,07,10,32,2.70
2007,05,07,10,33,3.60
2007,05,07,10,34,7.20
2007,05,07,10,35,8.20
2007,05,07,10,36,5.60
2007,05,07,10,37,6.30
2007,05,07,10,38,9.90
2007,05,07,10,39,7.80
2007,05,07,10,40,8.50
2007,05,07,10,41,6.80
2007,05,07,10,42,4.90
2007,05,07,10,43,5.30
2007,05,07,10,44,8.30
2007,05,07,10,45,6.70
2007,05,07,10,46,9.50
2007,05,07,10,47,10.00
2007,05,07,10,48,14.30
2007,05,07,10,49,5.80
2007,05,07,10,50,14.10
2007,05,07,10,51,8.40
2007,05,07,10,52,11.70
2007,05,07,10,53,12.40
2007,05,07,10,54,4.70
2007,05,07,10,55,9.30
2007,05,07,10,56,11.30
2007,05,07,10,57,5.80
2007,05,07,10,58,10.20
2007,05,07,10,59,9.70
2007,05,07,11,00,8.50
2007,05,07,11,01,7.20
2007,05,07,11,02,12.10
2007,05,07,11,03,7.40
2007,05,07,11,04,8.30
2007,05,07,11,05,11.40
2007,05,07,11,06,6.90
2007,05,07,11,07,3.80
2007,05,07,11,08,7.30
2007,05,07,11,09,2.40
2007,05,07,11,10,4.00
2007,05,07,11,11,8.60
2007,05,07,11,12,11.90
2007,05,07,11,13,4.30
2007,05,07,11,14,6.40
2007,05,07,11,15,9.10
2007,05,07,11,16,10.70
2007,05,07,11,17,7.10
2007,05,07,11,18,10.10
2007,05,07,11,19,2.20
2007,05,07,11,20,6.00
2007,05,07,11,21,4.40
2007,05,07,11,22,3.50
2007,05,07,11,23,3.10
2007,05,07,11,24,8.00
2007,05,07,11,25,6.30
2007,05,07,11,26,6.30
2007,05,07,11,27,6.00
2007,05,07,11,28,4.70
2007,05,07,11,29,5.20
2007,05,07,11,30,10.40
2007,05,07,11,31,5.20
2007,05,07,11,32,11.00
2007,05,07,11,33,8.10
2007,05,07,11,34,5.70
2007,05,07,11,35,7.60
2007,05,07,11,36,9.10
2007,05,07,11,37,9.10
2007,05,07,11,38,10.00
2007,05,07,11,39,8.10
2007,05,07,11,40,13.20
2007,05,07,11,41,7.50
2007,05,07,11,42,6.10
2007,05,07,11,43,7.60
2007,05,07,11,44,6.00
2007,05,07,11,45,8.10
2007,05,07,11,46,7.60
2007,05,07,11,47,10.60
2007,05,07,11,48,7.80
2007,05,07,11,49,5.30
2007,05,07,11,50,8.50
2007,05,07,11,51,4.80
2007,05,07,11,52,3.50
2007,05,07,11,53,2.20
2007,05,07,11,54,7.40
2007,05,07,11,55,6.70
2007,05,07,11,56,11.20
2007,05,07,11,57,10.50
2007,05,07,11,58,7.40
2007,05,07,11,59,7.70
2007,05,07,12,00,5.90
2007,05,07,12,01,7.60
2007,05,07,12,02,5.10
2007,05,07,12,03,8.20
2007,05,07,12,04,7.00
2007,05,07,12,05,7.90
2007,05,07,12,06,7.50
2007,05,07,12,07,10.50
2007,05,07,12,08,9.50
2007,05,07,12,09,4.20
2007,05,07,12,10,6.00
2007,05,07,12,11,8.90
2007,05,07,12,12,11.90
2007,05,07,12,13,9.70
2007,05,07,12,14,12.50
2007,05,07,12,15,9.70
2007,05,07,12,16,5.90
2007,05,07,12,17,7.80
2007,05,07,12,18,9.70
2007,05,07,12,19,8.90
2007,05,07,12,20,16.00
2007,05,07,12,21,5.30
2007,05,07,12,22,6.40
2007,05,07,12,23,4.80
2007,05,07,12,24,4.50
2007,05,07,12,25,4.60
2007,05,07,12,26,6.10
2007,05,07,12,27,1.90
2007,05,07,12,28,6.40
2007,05,07,12,29,8.00
2007,05,07,12,30,6.10
2007,05,07,12,31,9.80
2007,05,07,12,32,8.10
2007,05,07,12,33,5.00
2007,05,07,12,34,5.80
2007,05,07,12,35,7.30
2007,05,07,12,36,6.10
2007,05,07,12,37,4.70
2007,05,07,12,38,8.60
2007,05,07,12,39,7.70
2007,05,07,12,40,10.10
2007,05,07,12,41,6.90
2007,05,07,12,42,6.60
2007,05,07,12,43,8.10
2007,05,07,12,44,11.90
2007,05,07,12,45,5.90
2007,05,07,12,46,3.60
2007,05,07,12,47,11.80
2007,05,07,12,48,7.40
2007,05,07,12,49,7.20
2007,05,07,12,50,8.20
2007,05,07,12,51,7.50
2007,05,07,12,52,7.80
2007,05,07,12,53,6.90
2007,05,07,12,54,9.40
2007,05,07,12,55,4.10
2007,05,07,12,56,1.90
2007,05,07,12,57,2.60
2007,05,07,12,58,3.40
2007,05,07,12,59,2.90
2007,05,07,13,00,2.90
2007,05,07,13,01,5.30
2007,05,07,13,02,4.70
2007,05,07,13,03,5.60
2007,05,07,13,04,2.10
2007,05,07,13,05,2.10
2007,05,07,13,06,8.60
2007,05,07,13,07,5.50
2007,05,07,13,08,8.40
2007,05,07,13,09,8.50
2007,05,07,13,10,4.40
2007,05,07,13,11,3.80
2007,05,07,13,12,6.20
2007,05,07,13,13,4.20
2007,05,07,13,14,5.50
2007,05,07,13,15,4.60
2007,05,07,13,16,5.80
2007,05,07,13,17,9.10
2007,05,07,13,18,5.60
2007,05,07,13,19,9.30
2007,05,07,13,20,5.60
2007,05,07,13,21,6.30
2007,05,07,13,22,5.50
2007,05,07,13,23,7.20
2007,05,07,13,24,7.60
2007,05,07,13,25,7.50
2007,05,07,13,26,6.00
2007,05,07,13,27,2.40
2007,05,07,13,28,7.50
2007,05,07,13,29,2.50
2007,05,07,13,30,4.50
2007,05,07,13,31,9.10
2007,05,07,13,32,8.60
2007,05,07,13,33,7.30
2007,05,07,13,34,6.00
2007,05,07,13,35,5.60
2007,05,07,13,36,7.10
2007,05,07,13,37,7.20
2007,05,07,13,38,6.30
2007,05,07,13,39,9.70
2007,05,07,13,40,6.50
2007,05,07,13,41,6.40
2007,05,07,13,42,6.20
2007,05,07,13,43,5.30
2007,05,07,13,44,14.60
2007,05,07,13,45,13.00
2007,05,07,13,46,4.90
2007,05,07,13,47,12.80
2007,05,07,13,48,9.40
2007,05,07,13,49,4.70
2007,05,07,13,50,7.40
2007,05,07,13,51,6.80
2007,05,07,13,52,4.20
2007,05,07,13,53,2.50
2007,05,07,13,54,6.70
2007,05,07,13,55,5.40
2007,05,07,13,56,6.00
2007,05,07,13,57,5.60
2007,05,07,13,58,5.30
2007,05,07,13,59,11.40
2007,05,07,14,00,8.60
2007,05,07,14,01,5.30
2007,05,07,14,02,3.70
2007,05,07,14,03,4.80
2007,05,07,14,04,5.10
2007,05,07,14,05,2.30
2007,05,07,14,06,4.90
2007,05,07,14,07,5.30
2007,05,07,14,08,4.30
2007,05,07,14,09,5.40
2007,05,07,14,10,7.10
2007,05,07,14,11,5.00
2007,05,07,14,12,6.60
2007,05,07,14,13,5.50
2007,05,07,14,14,5.50
2007,05,07,14,15,4.10
2007,05,07,14,16,6.40
2007,05,07,14,17,5.30
2007,05,07,14,18,2.30
2007,05,07,14,19,4.80
2007,05,07,14,20,2.40
2007,05,07,14,21,4.60
2007,05,07,14,22,5.40
2007,05,07,14,23,3.90
2007,05,07,14,24,2.70
2007,05,07,14,25,1.40
2007,05,07,14,26,5.30
2007,05,07,14,27,5.80
2007,05,07,14,28,4.20
2007,05,07,14,29,4.20
2007,05,07,14,30,9.10
2007,05,07,14,31,6.00
2007,05,07,14,32,2.70
2007,05,07,14,33,1.90
2007,05,07,14,34,0.80
2007,05,07,14,35,1.20
2007,05,07,14,36,2.90
2007,05,07,14,37,3.80
2007,05,07,14,38,6.70
2007,05,07,14,39,5.40
2007,05,07,14,40,9.40
2007,05,07,14,41,6.10
2007,05,07,14,42,1.50
2007,05,07,14,43,9.70
2007,05,07,14,44,3.00
2007,05,07,14,45,3.50
2007,05,07,14,46,5.50
2007,05,07,14,47,7.50
2007,05,07,14,48,3.30
2007,05,07,14,49,4.10
2007,05,07,14,50,5.40
2007,05,07,14,51,6.00
2007,05,07,14,52,4.40
2007,05,07,14,53,4.10
2007,05,07,14,54,4.70
2007,05,07,14,55,2.30
2007,05,07,14,56,4.20
2007,05,07,14,57,1.60
2007,05,07,14,58,2.90
2007,05,07,14,59,5.00
2007,05,07,15,00,7.70
2007,05,07,15,01,5.50
2007,05,07,15,02,5.40
2007,05,07,15,03,5.40
2007,05,07,15,04,7.20
2007,05,07,15,05,8.60
2007,05,07,15,06,5.30
2007,05,07,15,07,3.30
2007,05,07,15,08,4.70
2007,05,07,15,09,5.00
2007,05,07,15,10,5.90
2007,05,07,15,11,3.70
2007,05,07,15,12,6.60
2007,05,07,15,13,3.10
2007,05,07,15,14,3.10
2007,05,07,15,15,2.90
2007,05,07,15,16,7.60
2007,05,07,15,17,2.80
2007,05,07,15,18,6.00
2007,05,07,15,19,5.00
2007,05,07,15,20,3.10
2007,05,07,15,21,4.80
2007,05,07,15,22,5.30
2007,05,07,15,23,5.40
2007,05,07,15,24,8.00
2007,05,07,15,25,6.30
2007,05,07,15,26,6.80
2007,05,07,15,27,7.50
2007,05,07,15,28,8.40
2007,05,07,15,29,8.90
2007,05,07,15,30,6.00
2007,05,07,15,31,5.30
2007,05,07,15,32,5.80
2007,05,07,15,33,10.60
2007,05,07,15,34,5.10
2007,05,07,15,35,2.60
2007,05,07,15,36,1.20
2007,05,07,15,37,2.90
2007,05,07,15,38,1.70
2007,05,07,15,39,1.40
2007,05,07,15,40,1.50
2007,05,07,15,41,3.90
2007,05,07,15,42,5.30
2007,05,07,15,43,1.50
2007,05,07,15,44,4.50
2007,05,07,15,45,3.30
2007,05,07,15,46,10.10
2007,05,07,15,47,2.80
2007,05,07,15,48,4.80
2007,05,07,15,49,2.90
2007,05,07,15,50,3.60
2007,05,07,15,51,4.30
2007,05,07,15,52,6.40
2007,05,07,15,53,6.10
2007,05,07,15,54,6.40
2007,05,07,15,55,5.30
2007,05,07,15,56,7.90
2007,05,07,15,57,4.70
2007,05,07,15,58,6.70
2007,05,07,15,59,7.30
2007,05,07,16,00,8.90
2007,05,07,16,01,5.30
2007,05,07,16,02,4.10
2007,05,07,16,03,5.20
2007,05,07,16,04,6.60
2007,05,07,16,05,8.10
2007,05,07,16,06,3.10
2007,05,07,16,07,1.60
2007,05,07,16,08,3.90
2007,05,07,16,09,7.40
2007,05,07,16,10,4.70
2007,05,07,16,11,4.60
2007,05,07,16,12,7.00
2007,05,07,16,13,4.70
2007,05,07,16,14,6.60
2007,05,07,16,15,2.90
2007,05,07,16,16,3.40
2007,05,07,16,17,2.30
2007,05,07,16,18,0.20
2007,05,07,16,19,2.30
2007,05,07,16,20,5.30
2007,05,07,16,21,7.50
2007,05,07,16,22,7.80
2007,05,07,16,23,4.50
2007,05,07,16,24,7.80
2007,05,07,16,25,8.40
2007,05,07,16,26,7.30
2007,05,07,16,27,8.20
2007,05,07,16,28,3.10
2007,05,07,16,29,1.50
2007,05,07,16,30,1.00
2007,05,07,16,31,3.40
2007,05,07,16,32,3.50
2007,05,07,16,33,6.50
2007,05,07,16,34,4.70
2007,05,07,16,35,5.70
2007,05,07,16,36,6.80
2007,05,07,16,37,3.50
2007,05,07,16,38,7.20
2007,05,07,16,39,5.60
2007,05,07,16,40,4.80
2007,05,07,16,41,2.30
2007,05,07,16,42,6.20
2007,05,07,16,43,5.30
2007,05,07,16,44,4.60
2007,05,07,16,45,7.80
2007,05,07,16,46,4.00
2007,05,07,16,47,7.00
2007,05,07,16,48,5.40
2007,05,07,16,49,7.30
2007,05,07,16,50,7.00
2007,05,07,16,51,6.20
2007,05,07,16,52,6.60
2007,05,07,16,53,4.50
2007,05,07,16,54,4.20
2007,05,07,16,55,3.10
2007,05,07,16,56,0.30
2007,05,07,16,57,6.40
2007,05,07,16,58,3.60
2007,05,07,16,59,3.60
2007,05,07,17,00,8.30
2007,05,07,17,01,3.60
2007,05,07,17,02,6.40
2007,05,07,17,03,5.20
2007,05,07,17,04,3.80
2007,05,07,17,05,4.80
2007,05,07,17,06,5.00
2007,05,07,17,07,6.50
2007,05,07,17,08,3.10
2007,05,07,17,09,3.90
2007,05,07,17,10,9.00
2007,05,07,17,11,5.80
2007,05,07,17,12,5.80
2007,05,07,17,13,4.30
2007,05,07,17,14,5.40
2007,05,07,17,15,5.40
2007,05,07,17,16,4.70
2007,05,07,17,17,4.60
2007,05,07,17,18,4.70
2007,05,07,17,19,7.70
2007,05,07,17,20,3.20
2007,05,07,17,21,6.00
2007,05,07,17,22,9.20
2007,05,07,17,23,7.70
2007,05,07,17,24,5.20
2007,05,07,17,25,3.50
2007,05,07,17,26,3.20
2007,05,07,17,27,4.30
2007,05,07,17,28,9.70
2007,05,07,17,29,5.20
2007,05,07,17,30,6.90
2007,05,07,17,31,6.30
2007,05,07,17,32,8.80
2007,05,07,17,33,7.80
2007,05,07,17,34,6.30
2007,05,07,17,35,6.40
2007,05,07,17,36,6.50
2007,05,07,17,37,4.60
2007,05,07,17,38,6.40
2007,05,07,17,39,3.60
2007,05,07,17,40,2.30
2007,05,07,17,41,4.10
2007,05,07,17,42,5.60
2007,05,07,17,43,5.90
2007,05,07,17,44,4.80
2007,05,07,17,45,5.30
2007,05,07,17,46,5.30
2007,05,07,17,47,2.70
2007,05,07,17,48,3.60
2007,05,07,17,49,6.50
2007,05,07,17,50,4.90
2007,05,07,17,51,5.20
2007,05,07,17,52,4.60
2007,05,07,17,53,2.20
2007,05,07,17,54,3.60
2007,05,07,17,55,7.00
2007,05,07,17,56,5.90
2007,05,07,17,57,4.30
2007,05,07,17,58,5.30
2007,05,07,17,59,4.40
2007,05,07,18,00,5.20
2007,05,07,18,01,8.30
2007,05,07,18,02,4.50
2007,05,07,18,03,2.30
2007,05,07,18,04,4.90
2007,05,07,18,05,3.90